Regional Weather Roundup
Issued by NWS San Angelo, TX

Home | Current Version | Previous Version | Text Only | Print | Product List | Glossary On
Versions: 1 2 3 4 5 6 7 8 9 10 11 12 13 14 15 16 17 18 19 20 21 22 23 24 25 26 27 28 29 30 31 32 33 34 35 36 37 38 39 40 41 42 43 44 45 46 47 48 49 50
000
ASUS44 KSJT 052210
RWRSJT
WEST CENTRAL TEXAS REGIONAL WEATHER ROUNDUP
NATIONAL WEATHER SERVICE SAN ANGELO TX
500 PM CDT SUN JUL 05 2015

NOTE: "FAIR" INDICATES FEW OR NO CLOUDS BELOW 12,000 FEET WITH NO
SIGNIFICANT WEATHER AND/OR OBSTRUCTIONS TO VISIBILITY.

TXZ049-054-064>066-071>073-076>078-098-099-113-114-127-128-139-140-
154-155-168>170-052300
...LOCATIONS ACROSS WEST CENTRAL TEXAS...

CITY           SKY/WX    TMP DP  RH WIND       PRES   REMARKS
SAN ANGELO     SUNNY     93  66  40 S14G21    29.94F
ABILENE        MOSUNNY   93  65  39 S17G24    29.94F
DYESS AFB      MOSUNNY   92  69  46 S18       29.92F
JUNCTION       MOSUNNY   88  64  44 S16G24    29.97F
SWEETWATER     MOSUNNY   90  66  44 S14G20    29.98F
BROWNWOOD      PTSUNNY   91  63  38 S13       29.95F
COLEMAN        CLEAR     92  66  42 S14G20    29.96F
SONORA         SUNNY     88  63  42 S17       30.01F
OZONA          FAIR      90  61  37 SE16G25   29.98F
BRADY          PTSUNNY   90  63  40 N13       29.97F
$$

TEXAS PANHANDLE/OKLAHOMA PANHANDLE

CITY           SKY/WX    TMP DP  RH WIND       PRES   REMARKS
AMARILLO       SUNNY     90  59  35 S17G24    29.97F
BORGER         SUNNY     92  62  36 S16G24    29.92F
CANADIAN       SUNNY     92  67  43 S17       29.89F
DALHART        LGT RAIN  96  56  26 S23G31    29.95F
DUMAS          PTCLDY    90  59  34 S20G28    29.95F
GUYMON         NOT AVBL
HEREFORD       CLEAR     91  58  32 MISG      29.98F
PAMPA          CLEAR     89  60  37 S16G24    29.96S
PERRYTON       MOSUNNY   94  58  30 S18G25    29.90F
$$

SOUTHERN PANHANDLE/SOUTH PLAINS/ROLLING PLAINS

CITY           SKY/WX    TMP DP  RH WIND       PRES   REMARKS
LUBBOCK        PTSUNNY   91  63  39 S13       29.96F
SNYDER         MOSUNNY   89  68  50 SE15      29.95F
CHILDRESS      MOSUNNY   93  66  40 S17       29.89F
SEMINOLE       MOCLDY    92  56  29 S5        29.96F
$$

PERMIAN BASIN

CITY           SKY/WX    TMP DP  RH WIND       PRES   REMARKS
MIDLAND        MOSUNNY   94  62  34 VRB7      29.94F
ODESSA         MOSUNNY   93  61  34 S12G21    29.95F
WINK           MOSUNNY   98  62  30 SE16G22   29.89F
$$

FAR WEST/SOUTHWEST MOUNTAINS/TRANS PECOS

CITY           SKY/WX    TMP DP  RH WIND       PRES   REMARKS
ALPINE         MOCLDY    85  59  41 S8        30.11F
DRYDEN           N/A     93  66  40 SE12G20   29.92F
EL PASO        MOSUNNY   92  58  31 W15       29.98F
FORT STOCKTON  CLOUDY    86  64  47 S15       29.96S
GUADALUPE PASS PTSUNNY   82  55  39 SW12      30.12F
MARFA          PTSUNNY  N/A N/A N/A SE9       30.10F
PECOS          MOCLDY    96  62  32 SE16G26   29.89S
$$

DALLAS/FORT WORTH METROPLEX

CITY           SKY/WX    TMP DP  RH WIND       PRES   REMARKS
DFW AIRPORT    MOSUNNY   91  67  44 S20G25    29.93F
FTW MEACHAM    PTSUNNY   92  69  47 S14G23    29.93F
DAL-EXECUTIVE  MOSUNNY   90  68  48 S13G18    29.95F
GRAND PRAIRIE  SUNNY     91  70  49 S14G21    29.99
ADDISON        NOT AVBL
MESQUITE         N/A     91  70  49 SE13      29.96F
LANCASTER      CLEAR     91  65  42 S12G20    29.97F
$$

NORTH CENTRAL TEXAS

CITY           SKY/WX    TMP DP  RH WIND       PRES   REMARKS
SHRMAN/DENISON PTCLDY    94  70  45 S14       29.95F
GAINESVILLE    PTSUNNY   90  68  48 S16G22    29.95F
BRIDGEPORT     PTCLDY    92  69  45 S14G21    29.95F
DENTON         MOSUNNY   91  70  49 S17G26    29.93F
WAXAHACHIE     PTCLDY    91  69  47 S16G24    29.97F
GRANBURY       CLOUDY    93  66  40 S12G18    29.95F
$$

WESTERN NORTH TEXAS

CITY           SKY/WX    TMP DP  RH WIND       PRES   REMARKS
WICHITA FALLS  PTSUNNY   93  67  42 S18G24    29.89F
VERNON         CLEAR     98  56  24 S16       29.89F
BRECKENRIDGE   CLEAR     94  62  35 S16G25    29.92F
COMANCHE       MOSUNNY   91  67  44 S15       29.96F
$$

CENTRAL AND SOUTH CENTRAL TEXAS

CITY           SKY/WX    TMP DP  RH WIND       PRES   REMARKS
AUSTIN/BERGSTM PTSUNNY   88  72  58 S14G25    29.96F
WACO           MOSUNNY   91  70  49 S18       29.96F
HILLSBORO      CLEAR     91  68  46 S15G22    29.96F
TEMPLE         MOSUNNY   90  70  51 S17       29.96F
KILLEEN-GRAY   SUNNY     90  71  52 S18       29.96F
FORT HOOD      MOSUNNY   91  70  51 S13       29.96F
GEORGETOWN     PTSUNNY   91  70  49 S15G25    29.96F
LAGO VISTA     FAIR      91  69  49 S15G22    30.00F
SAN MARCOS     MOSUNNY   90  70  51 SE18      29.97F
NEW BRAUNFELS  PTSUNNY   89  72  56 S15       29.95F
RANDOLPH AFB   MOSUNNY   90  72  55 S15       29.96F
SAN ANTONIO    MOSUNNY   90  72  55 S21       29.97F
STINSON        MOSUNNY   90  72  55 S10G20    29.93F
PLEASANTON     NOT AVBL
LA GRANGE      MOSUNNY   92  75  57 S12G21    29.97F
GIDDINGS       PTCLDY    89  71  55 S9G17     30.02F
$$

EAST TEXAS

CITY           SKY/WX    TMP DP  RH WIND       PRES   REMARKS
PARIS          MOSUNNY   91  73  55 SW12G17   29.97F
CLARKSVILLE    NOT AVBL
TYLER          SUNNY     92  69  47 S16       29.98F
LONGVIEW       MOSUNNY   96  73  47 SW9       29.97F
PALESTINE      PTCLDY    92  70  49 S10G16    30.00F
NACOGDOCHES    MOSUNNY  N/A N/A N/A S13       29.99F
$$

TEXAS HILL COUNTRY AND EDWARDS PLATEAU

CITY           SKY/WX    TMP DP  RH WIND       PRES   REMARKS
LLANO          PTCLDY    93  68  43 S15G21    29.98F
HORSESHOE BAY  FAIR      90  70  51 S8G21     29.97F
KERRVILLE      SUNNY     87  72  61 S17       30.00F
FREDERICKSBRG  PTSUNNY   87  68  53 SE10G21   29.99F
ROCKSPRINGS    PTCLDY    84  66  54 SE15G22   30.02F
HONDO          LGT RAIN  89  73  59 SE15      29.96F
UVALDE         CLEAR     89  71  55 S15       29.93F
DEL RIO        MOSUNNY   92  68  45 SE18G24   29.89F
$$

SOUTHEAST TEXAS

CITY           SKY/WX    TMP DP  RH WIND       PRES   REMARKS
COLLEGE STN    SUNNY     92  72  51 S15       29.99F
CALDWELL       PTCLDY    90  75  62 SE15G21   30.01F
CROCKETT         N/A     93  75  55 S8        30.02F
BRENHAM        SUNNY     93  74  54 S13       30.00F
HUNTSVILLE     MOSUNNY   90  71  53 S10       30.00F
CONROE         MOSUNNY   91  70  49 S10       30.01F
HOUSTON BUSH   MOSUNNY   91  73  55 S13G21    30.01F
HOUSTON HOBBY  MOSUNNY   89  74  60 S16       30.01F
PERLAND        MOSUNNY   91  73  55 S13G21    30.03F
WHARTON        CLEAR     88  74  63 S13       30.03S
$$

THE UPPER TEXAS COAST

CITY           SKY/WX    TMP DP  RH WIND       PRES   REMARKS
ORANGE         PTCLDY    88  71  58 S14       30.04F
PORT ARTHUR    MOSUNNY   89  76  65 S10G21    30.02F
GALVESTON      SUNNY     89  78  70 S17       30.05F
ANGLETON       LGT RAIN  88  75  65 S13       30.03F
BAY CITY       PTCLDY    90  75  61 S12       30.02F
$$

TEXAS COASTAL BEND, RIO GRANDE PLAINS DEEP SOUTH TEXAS

CITY           SKY/WX    TMP DP  RH WIND       PRES   REMARKS
VICTORIA       PTSUNNY   88  75  65 S20G26    29.99F
BEEVILLE       FAIR      88  77  69 SE16G28   29.96F
ROCKPORT       LGT RAIN  88  76  67 SE13G26   29.98F
PORT ARANSAS   CLEAR     86  78  79 S12G17    29.98F
PORT LAVACA    NOT AVBL
CORPUS CHRISTI MOSUNNY   90  75  61 SE24G30   29.96F
KINGSVILLE NAS MOSUNNY   91  80  70 SE21G28   29.94F
COTULLA        LGT RAIN  92  70  48 S15G24    29.90F
LAREDO         MOSUNNY   97  69  39 S20G26    29.89F
BROWNSVILLE    CLOUDY    88  77  69 SE20G29   29.98F
PORT ISABEL    PTSUNNY   87  77  72 SE25G31   29.96F HAZE
HEBBRONVILLE     N/A     92  71  49 SE21G26   29.93F
MCALLEN        MOSUNNY   94  74  52 SE23G33   29.94F
WESLACO        PTSUNNY   91  72  52 SE20G28   29.94F
FALFURRIAS     PTCLDY    93  74  52 SE17G25   29.92F
EDINBURG       PTCLDY    94  71  46 S20G25    29.94F
$$



USA.gov is the U.S. government's official web portal to all federal, state and local government web resources and services.